User: anonymous
Location: Heilwood
(40.6210°N, 78.9150°W)
Time: 00:23:38
(UTC-04:00)
Language:

Iridium 4 Rocket - Orbit

View from above orbital plane
View from above orbital plane
View from above satellite
View from above satellite

Ground track
Ground track

The orbit data is extracted from the following two-line orbital elements,

1 24797U 97020F   14273.86626292  .00000600  00000-0  12470-3 0  7862
2 24797 086.9007 355.8771 0227650 018.5167 116.5826 14.43203269915061
Epoch (UTC): 30 September 2014 20:47:25
Eccentricity: 0.0227650
inclination: 86.9007°
perigee height: 586 km
apogee height: 910 km
right ascension of ascending node: 355.8771°
argument of perigee: 18.5167°
revolutions per day: 14.43203269
mean anomaly at epoch: 116.5826°
orbit number at epoch: 91506

The dashed part of the orbit path shows where the satellite is in the earth's shadow,  

DLR